Location: Ch?enovice
(49.7164°N, 15.2160°E)
Time: 16:35:31
(UTC+00:00)

SJ 16-02 - Pass Details

Date: 23 May 2024
Orbit: 594 x 605 km, 75.0° (Epoch: 13 June)

Event Time Altitude Azimuth Distance (km) Brightness Sun altitude
Exits shadow 01:40:09 14° 200° (SSW) 1,692 3.0 -10.8°
Maximum altitude 01:43:52 89° 109° (ESE) 602 1.3 -10.4°
Drops below altitude 10° 01:48:12 10° 22° (NNE) 1,941 5.2 -10.0°
Sets 01:50:26 0° 23° (NNE) 2,848 6.4 -9.7°
